Tracking 29967 objects as of 5-Dec-2024
HD Live streaming from Space Station
objects crossing your sky now

STARLINK-31048

Track STARLINK-31048 now!
10-day predictions
STARLINK-31048 is classified as:


NORAD ID: 58544
Int'l Code: 2023-192P
Perigee: 481.4 km
Apogee: 483.4 km
Inclination: 53.2 °
Period: 94.1 minutes
Semi major axis: 6853 km
RCS: Unknown
Launch date: December 8, 2023
Source: United States (US)
Launch site: AIR FORCE WESTERN TEST RANGE (AFWTR)
Your satellite tracking list
Your tracking list is empty




NASA's NSSDC Master Catalog

Two Line Element Set (TLE):
1 58544U 23192P   24340.42715570  .00002627  00000-0  10083-3 0  9999
2 58544  53.1615  35.6871 0001407  97.3221 262.7940 15.30184639 55678
Source of the keplerian elements: AFSPC